Location: Unspecified
(58.7730°N, 5.8460°E)
Time: 17:52:15
(UTC+02:00)

Cosmos 2058 - Visible Passes

Search period start: 25 June 2016 00:00
Search period end: 05 July 2016 00:00
Orbit: 563 x 587 km, 82.5° (Epoch: 25 June)

Date Brightness Start Highest point End Pass type
(mag) Time Alt. Az. Time Alt. Az. Time Alt. Az.
25 Jun 5.7 01:34:16 10° W 01:36:15 13° NW 01:38:15 10° NNW visible
26 Jun 5.9 01:38:50 10° WNW 01:40:06 11° NW 01:41:22 10° NNW visible
28 Jun 4.6 00:05:47 10° SW 00:09:31 33° WNW 00:13:17 10° N visible
29 Jun 5.0 00:09:43 10° WSW 00:13:16 28° WNW 00:16:51 10° N visible
30 Jun 5.3 00:13:43 10° WSW 00:17:02 23° WNW 00:20:23 10° N visible
01 Jul 5.6 00:17:46 10° WSW 00:20:49 20° WNW 00:23:53 10° N visible
02 Jul 5.7 00:21:55 10° W 00:24:37 17° NW 00:27:21 10° NNW visible
03 Jul 5.8 00:26:10 10° W 00:28:27 14° NW 00:30:44 10° NNW visible
04 Jul 6.0 00:30:34 10° WNW 00:32:17 12° NW 00:33:59 10° NNW visible
